Weather History for Alliance, NE

Change the Weather History Date:

Wednesday, October 3, 2012

  Actual Average Record
Temperature  
Mean Temperature 59 °F 51 °F  
Max Temperature 83 °F 68 °F 90 °F (1992)
Min Temperature 34 °F 34 °F 16 °F (2009)
Degree Days  
Heating Degree Days 6 14  
Month to date heating degree days 24 41  
Since 1 July heating degree days 187 286  
Cooling Degree Days 0 0  
Month to date cooling degree days 0 0  
Year to date cooling degree days 959 563  
Growing Degree Days 10 (Base 50)    
Moisture  
Dew Point 30 °F    
Average Humidity 38    
Maximum Humidity 65    
Minimum Humidity 11    
Precipitation  
Precipitation T in 0.05 in 0.63 in (1930)
Month to date precipitation T 0.15  
Year to date precipitation 5.81 13.95  
Sea Level Pressure  
Sea Level Pressure 29.94 in    
Wind  
Wind Speed 16 mph (NNW)    
Max Wind Speed 36 mph    
Max Gust Speed 44 mph    
Visibility 10 miles    
Events Rain , Snow    
T = Trace of Precipitation, MM = Missing Value Source: NWS Daily Summary

Daily Weather History Graph

Daily Weather History Graph

Search for Another Location

Airport:

Trip Planner

Search our weather history database for the weather conditions in past years. The results will help you decide how hot, cold, wet, or windy it might be!

Date:

Astronomy

Oct. 03, 2012 Rise Set
Actual Time 6:50 AM MDT 6:28 PM MDT
Civil Twilight 6:23 AM MDT 6:56 PM MDT
Nautical Twilight 5:50 AM MDT 7:28 PM MDT
Astronomical Twilight 5:17 AM MDT 8:01 PM MDT
Moon 8:17 PM MDT (10/3) 10:20 AM MDT (10/3)
Length of Visible Light 12h 33m
Length of Day
11h 37m
Waning Gibbous, 88% of the Moon is Illuminated
Oct 3
Waning Gibbous
Oct 8
Last Quarter
Oct 15
New
Oct 21
First Quarter
Oct 29
Full

Hourly Weather History & Observations

Time (MDT) Temp. Windchill Dew Point Humidity Pressure Visibility Wind Dir Wind Speed Gust Speed Precip Events Conditions
12:53 AM 51.1 °F - 34.0 °F 52% 29.65 in 10.0 mi South 9.2 mph - N/A   Clear
1:53 AM 46.0 °F 43.9 °F 33.1 °F 61% 29.66 in 10.0 mi South 4.6 mph - N/A   Clear
2:53 AM 45.0 °F 39.3 °F 30.9 °F 58% 29.65 in 10.0 mi SW 11.5 mph - N/A   Clear
3:53 AM 51.1 °F - 28.0 °F 41% 29.64 in 10.0 mi WSW 11.5 mph - N/A   Clear
4:53 AM 48.0 °F - 27.0 °F 44% 29.65 in 10.0 mi WSW 12.7 mph - N/A   Clear
5:53 AM 50.0 °F - 26.1 °F 39% 29.67 in 10.0 mi WNW 10.4 mph - N/A   Clear
6:53 AM 48.9 °F - 26.1 °F 41% 29.71 in 10.0 mi NW 10.4 mph - N/A   Clear
7:53 AM 53.1 °F - 26.1 °F 35% 29.73 in 10.0 mi Calm Calm - N/A   Clear
9:53 AM 64.0 °F - 28.0 °F 26% 29.71 in 10.0 mi NW 5.8 mph - N/A   Clear
10:53 AM 78.8 °F - 28.4 °F 16% 29.76 in 10.0 mi West 17.3 mph - N/A   Clear
11:53 AM 82.0 °F - 23.0 °F 11% 29.64 in 10.0 mi West 18.4 mph 28.8 mph N/A   Clear
12:53 PM 80.1 °F - 27.0 °F 14% 29.67 in 10.0 mi NNW 24.2 mph 32.2 mph N/A   Clear
1:53 PM 73.9 °F - 33.1 °F 22% 29.74 in 9.0 mi North 27.6 mph 42.6 mph N/A   Partly Cloudy
2:53 PM 66.2 °F - 35.6 °F 32% 29.89 in 10.0 mi North 26.5 mph 35.7 mph N/A   Clear
3:53 PM 61.0 °F - 36.0 °F 39% 29.89 in 10.0 mi NNW 28.8 mph 40.3 mph 0.00 in Rain Light Rain
4:53 PM 55.0 °F - 34.0 °F 45% 29.96 in 10.0 mi North 29.9 mph 38.0 mph 0.00 in   Clear
5:53 PM 46.9 °F - 34.0 °F 61% 30.06 in 10.0 mi North 21.9 mph 33.4 mph N/A   Mostly Cloudy
6:36 PM 44.6 °F 36.6 °F 35.6 °F 71% 30.12 in 10.0 mi North 19.6 mph 27.6 mph N/A   Overcast
6:53 PM 45.0 °F 36.6 °F 33.1 °F 63% 30.13 in 10.0 mi North 21.9 mph 32.2 mph N/A   Overcast
7:34 PM 44.6 °F 37.2 °F 32.0 °F 61% 30.18 in 10.0 mi North 17.3 mph 24.2 mph N/A   Overcast
7:43 PM 44.6 °F 37.2 °F 32.0 °F 61% 30.18 in 10.0 mi North 17.3 mph - N/A   Overcast
7:53 PM 43.0 °F 35.4 °F 30.9 °F 62% 30.18 in 10.0 mi North 16.1 mph 23.0 mph N/A   Overcast
8:53 PM 41.0 °F 31.9 °F 28.9 °F 62% 30.22 in 10.0 mi North 19.6 mph - N/A   Overcast
9:15 PM 41.0 °F 33.9 °F 28.4 °F 61% 30.24 in 10.0 mi North 12.7 mph - N/A   Overcast
9:45 PM 41.0 °F 32.8 °F 28.4 °F 61% 30.26 in 10.0 mi North 16.1 mph - N/A   Overcast
9:53 PM 41.0 °F 33.5 °F 28.9 °F 62% 30.23 in 10.0 mi North 13.8 mph - N/A   Overcast
10:53 PM 39.0 °F 31.0 °F 28.0 °F 65% 30.23 in 10.0 mi North 13.8 mph - N/A   Overcast
11:12 PM 37.4 °F 28.2 °F 28.4 °F 70% 30.29 in 9.0 mi NNW 16.1 mph - 0.00 in Snow Light Snow
11:53 PM 36.0 °F 26.7 °F 28.9 °F 76% 30.24 in 9.0 mi NNW 15.0 mph - 0.00 in Snow Light Snow